TimeCDT,TemperatureF,Dew PointF,Humidity,Sea Level PressureIn,VisibilityMPH,Wind Direction,Wind SpeedMPH,Gust SpeedMPH,PrecipitationIn,Events,Conditions,WindDirDegrees,DateUTC
12:53 AM,57.0,51.1,81,30.21,10.0,Calm,Calm,-,N/A,,Overcast,0,2012-10-12 05:53:00
1:53 AM,55.9,50.0,80,30.23,10.0,NNE,8.1,-,N/A,,Mostly Cloudy,30,2012-10-12 06:53:00
2:53 AM,55.0,50.0,83,30.23,10.0,NNE,10.4,-,N/A,,Overcast,20,2012-10-12 07:53:00
3:53 AM,54.0,39.9,59,30.25,10.0,NE,13.8,21.9,N/A,,Overcast,50,2012-10-12 08:53:00
4:53 AM,53.1,39.0,59,30.25,10.0,NE,16.1,20.7,N/A,,Overcast,50,2012-10-12 09:53:00
5:53 AM,52.0,37.9,59,30.27,10.0,NE,11.5,-,N/A,,Overcast,50,2012-10-12 10:53:00
6:53 AM,51.1,37.9,61,30.27,10.0,NE,15.0,-,N/A,,Overcast,40,2012-10-12 11:53:00
7:53 AM,50.0,37.9,63,30.30,10.0,ENE,13.8,-,N/A,,Overcast,70,2012-10-12 12:53:00
8:53 AM,51.1,39.0,63,30.32,10.0,East,12.7,-,N/A,,Overcast,80,2012-10-12 13:53:00
9:53 AM,53.1,39.0,59,30.33,10.0,ENE,15.0,-,N/A,,Overcast,70,2012-10-12 14:53:00
10:51 AM,55.4,39.2,54,30.33,10.0,East,12.7,-,N/A,,Overcast,80,2012-10-12 15:51:00
11:53 AM,57.0,42.1,57,30.32,10.0,East,12.7,20.7,N/A,,Overcast,80,2012-10-12 16:53:00
12:53 PM,57.9,42.1,56,30.31,10.0,East,11.5,-,N/A,,Overcast,100,2012-10-12 17:53:00
1:53 PM,59.0,43.0,55,30.27,10.0,ESE,13.8,-,N/A,,Overcast,120,2012-10-12 18:53:00
3:33 PM,62.6,46.4,55,30.22,10.0,East,13.8,-,N/A,,Partly Cloudy,100,2012-10-12 20:33:00
3:53 PM,63.0,46.9,56,30.22,10.0,SE,12.7,23.0,N/A,,Clear,130,2012-10-12 20:53:00
4:12 PM,62.6,46.4,55,30.21,10.0,ESE,15.0,21.9,N/A,,Mostly Cloudy,120,2012-10-12 21:12:00
4:53 PM,63.0,48.0,58,30.20,10.0,ESE,12.7,-,N/A,,Overcast,120,2012-10-12 21:53:00
5:53 PM,61.0,48.9,64,30.21,10.0,SSE,10.4,-,N/A,,Overcast,150,2012-10-12 22:53:00
6:53 PM,60.1,48.9,67,30.19,10.0,ESE,8.1,-,N/A,,Overcast,120,2012-10-12 23:53:00
7:53 PM,59.0,50.0,72,30.18,10.0,SE,6.9,-,N/A,,Mostly Cloudy,140,2012-10-13 00:53:00
8:08 PM,59.0,50.0,72,30.18,10.0,SE,8.1,-,N/A,,Mostly Cloudy,130,2012-10-13 01:08:00
9:53 PM,59.0,52.0,78,30.20,10.0,SE,11.5,-,N/A,,Clear,140,2012-10-13 02:53:00
10:53 PM,57.9,53.1,84,30.17,10.0,SSE,15.0,-,0.00,,Mostly Cloudy,160,2012-10-13 03:53:00
11:53 PM,57.9,55.0,90,30.09,9.0,SSE,10.4,-,0.00,,Mostly Cloudy,150,2012-10-13 04:53:00